When you browse on this site, cookies collect data to enhance your experience and personalize the content and advertising you see.
Visit our Privacy Policy to learn more. By continuing to use the site, you agree to this use of cookies and data.
  • en Suisse
  • Liste des pays
  • À 7 jours
  • Température de l'eau
  • Carte satellitaire
  • Carte météo
  • Widgets météo
  • user-avatar
    Se connecter

    Météo par heure à Malanje

    Ce jour, 26 Juin, Mercredi

    Heure Température Précipitation Vent Pression Humidité
    00:00 +16°C° 0 mm 1 m/s 665 mmHg 64%
    01:00 +15°C° 0 mm 1 m/s 665 mmHg 64%
    02:00 +15°C° 0 mm 1 m/s 665 mmHg 68%
    03:00 +14°C° 0 mm 1 m/s 665 mmHg 72%
    04:00 +14°C° 0 mm 1 m/s 665 mmHg 76%
    05:00 +14°C° 0 mm 1 m/s 665 mmHg 74%
    06:00 +14°C° 0 mm 1 m/s 666 mmHg 72%
    07:00 +14°C° 0 mm 1 m/s 666 mmHg 70%
    08:00 +19°C° 0 mm 1 m/s 667 mmHg 56%
    09:00 +23°C° 0 mm 1 m/s 668 mmHg 41%
    10:00 +27°C° 0 mm 2 m/s 669 mmHg 27%
    11:00 +29°C° 0 mm 1 m/s 668 mmHg 23%
    12:00 +31°C° 0 mm 1 m/s 668 mmHg 19%
    13:00 +33°C° 0 mm 1 m/s 668 mmHg 15%
    14:00 +32°C° 0 mm 1 m/s 667 mmHg 15%
    15:00 +32°C° 0 mm 1 m/s 667 mmHg 15%
    16:00 +31°C° 0 mm 1 m/s 666 mmHg 15%
    17:00 +28°C° 0 mm 1 m/s 666 mmHg 19%
    18:00 +25°C° 0 mm 1 m/s 666 mmHg 23%
    19:00 +22°C° 0 mm 1 m/s 665 mmHg 26%
    20:00 +21°C° 0 mm 1 m/s 665 mmHg 32%
    21:00 +20°C° 0 mm 1 m/s 666 mmHg 39%
    22:00 +19°C° 0 mm 1 m/s 666 mmHg 45%
    23:00 +18°C° 0 mm 1 m/s 666 mmHg 54%

    Demain, 27 Juin, Jeudi

    Heure Température Précipitation Vent Pression Humidité
    00:00 +16°C° 0 mm 1 m/s 665 mmHg 62%
    01:00 +15°C° 0 mm 2 m/s 665 mmHg 71%
    02:00 +15°C° 0 mm 1 m/s 665 mmHg 75%
    03:00 +14°C° 0 mm 1 m/s 665 mmHg 79%
    04:00 +13°C° 0 mm 1 m/s 665 mmHg 84%
    05:00 +14°C° 0 mm 1 m/s 665 mmHg 82%
    06:00 +14°C° 0 mm 1 m/s 666 mmHg 81%
    07:00 +14°C° 0 mm 1 m/s 666 mmHg 79%
    08:00 +19°C° 0 mm 1 m/s 667 mmHg 62%
    09:00 +23°C° 0 mm 1 m/s 668 mmHg 45%
    10:00 +27°C° 0 mm 1 m/s 669 mmHg 28%
    11:00 +30°C° 0 mm 1 m/s 669 mmHg 24%
    12:00 +32°C° 0 mm 1 m/s 669 mmHg 20%
    13:00 +34°C° 0 mm 1 m/s 668 mmHg 16%
    14:00 +33°C° 0 mm 1 m/s 668 mmHg 16%
    15:00 +31°C° 0 mm 0 m/s 667 mmHg 16%
    16:00 +30°C° 0 mm 0 m/s 666 mmHg 16%
    17:00 +27°C° 0 mm 0 m/s 666 mmHg 20%
    18:00 +24°C° 0 mm 0 m/s 666 mmHg 24%
    19:00 +23°C° 0 mm 1 m/s 665 mmHg 28%
    20:00 +21°C° 0 mm 1 m/s 665 mmHg 37%
    21:00 +20°C° 0 mm 1 m/s 665 mmHg 47%
    22:00 +19°C° 0 mm 1 m/s 665 mmHg 56%
    23:00 +18°C° 0 mm 1 m/s 665 mmHg 61%

    Après-demain, 28 Juin, Vendredi

    Heure Température Précipitation Vent Pression Humidité
    00:00 +16°C° 0 mm 1 m/s 665 mmHg 67%
    01:00 +15°C° 0 mm 1 m/s 665 mmHg 72%
    02:00 +15°C° 0 mm 1 m/s 665 mmHg 76%
    03:00 +14°C° 0 mm 1 m/s 664 mmHg 80%
    04:00 +12°C° 0 mm 0 m/s 664 mmHg 85%
    05:00 +13°C° 0 mm 0 m/s 665 mmHg 83%
    06:00 +14°C° 0 mm 1 m/s 665 mmHg 81%
    07:00 +15°C° 0 mm 1 m/s 666 mmHg 79%
    08:00 +20°C° 0 mm 1 m/s 667 mmHg 62%
    09:00 +24°C° 0 mm 1 m/s 668 mmHg 46%
    10:00 +28°C° 0 mm 2 m/s 669 mmHg 30%
    11:00 +30°C° 0 mm 2 m/s 668 mmHg 26%
    12:00 +31°C° 0 mm 2 m/s 668 mmHg 21%
    13:00 +34°C° 0 mm 2 m/s 667 mmHg 16%
    14:00 +34°C° 0 mm 2 m/s 667 mmHg 16%
    15:00 +32°C° 0 mm 2 m/s 666 mmHg 16%
    16:00 +32°C° 0 mm 2 m/s 666 mmHg 16%
    17:00 +29°C° 0 mm 2 m/s 665 mmHg 20%
    18:00 +26°C° 0 mm 2 m/s 665 mmHg 24%
    19:00 +23°C° 0 mm 1 m/s 665 mmHg 28%
    20:00 +22°C° 0 mm 1 m/s 665 mmHg 33%
    21:00 +20°C° 0 mm 2 m/s 665 mmHg 39%
    22:00 +19°C° 0 mm 2 m/s 665 mmHg 44%
    23:00 +17°C° 0 mm 2 m/s 665 mmHg 56%

    29 Juin, Samedi

    Heure Température Précipitation Vent Pression Humidité
    00:00 +16°C° 0 mm 1 m/s 665 mmHg 68%
    01:00 +15°C° 0 mm 1 m/s 664 mmHg 80%
    02:00 +15°C° 0 mm 1 m/s 664 mmHg 84%
    03:00 +14°C° 0 mm 1 m/s 664 mmHg 87%
    04:00 +13°C° 0 mm 0 m/s 664 mmHg 90%
    05:00 +13°C° 0 mm 0 m/s 665 mmHg 87%
    06:00 +14°C° 0 mm 0 m/s 666 mmHg 84%
    07:00 +15°C° 0 mm 1 m/s 666 mmHg 81%
    08:00 +20°C° 0 mm 1 m/s 667 mmHg 63%
    09:00 +24°C° 0 mm 1 m/s 668 mmHg 46%
    10:00 +28°C° 0 mm 1 m/s 669 mmHg 28%
    11:00 +30°C° 0 mm 1 m/s 669 mmHg 24%
    12:00 +32°C° 0 mm 2 m/s 668 mmHg 20%
    13:00 +35°C° 0 mm 2 m/s 668 mmHg 17%
    14:00 +34°C° 0 mm 2 m/s 667 mmHg 17%
    15:00 +34°C° 0 mm 2 m/s 667 mmHg 17%
    16:00 +32°C° 0 mm 2 m/s 666 mmHg 17%
    17:00 +29°C° 0 mm 2 m/s 666 mmHg 21%
    18:00 +26°C° 0 mm 2 m/s 666 mmHg 24%
    19:00 +23°C° 0 mm 1 m/s 666 mmHg 28%
    20:00 +22°C° 0 mm 1 m/s 666 mmHg 34%
    21:00 +20°C° 0 mm 2 m/s 666 mmHg 41%
    22:00 +19°C° 0 mm 2 m/s 666 mmHg 47%
    23:00 +18°C° 0 mm 2 m/s 666 mmHg 57%

    30 Juin, Dimanche

    Heure Température Précipitation Vent Pression Humidité
    00:00 +17°C° 0 mm 2 m/s 665 mmHg 67%
    01:00 +16°C° 0 mm 2 m/s 665 mmHg 76%
    02:00 +15°C° 0 mm 1 m/s 665 mmHg 81%
    03:00 +15°C° 0 mm 1 m/s 665 mmHg 85%
    04:00 +14°C° 0 mm 1 m/s 665 mmHg 90%
    05:00 +14°C° 0 mm 1 m/s 666 mmHg 88%
    06:00 +15°C° 0 mm 1 m/s 666 mmHg 86%
    07:00 +15°C° 0 mm 1 m/s 667 mmHg 84%
    08:00 +20°C° 0 mm 1 m/s 668 mmHg 65%
    09:00 +24°C° 0 mm 1 m/s 669 mmHg 46%
    10:00 +28°C° 0 mm 2 m/s 670 mmHg 27%
    11:00 +30°C° 0 mm 2 m/s 669 mmHg 23%
    12:00 +32°C° 0 mm 1 m/s 669 mmHg 19%
    13:00 +35°C° 0 mm 1 m/s 669 mmHg 16%
    14:00 +34°C° 0 mm 1 m/s 668 mmHg 16%
    15:00 +34°C° 0 mm 1 m/s 668 mmHg 15%
    16:00 +31°C° 0 mm 0 m/s 667 mmHg 15%
    17:00 +30°C° 0 mm 1 m/s 667 mmHg 20%
    18:00 +27°C° 0 mm 1 m/s 667 mmHg 24%
    19:00 +24°C° 0 mm 1 m/s 666 mmHg 29%
    20:00 +22°C° 0 mm 1 m/s 666 mmHg 40%
    21:00 +21°C° 0 mm 1 m/s 666 mmHg 51%
    22:00 +19°C° 0 mm 1 m/s 666 mmHg 62%
    23:00 +19°C° 0 mm 1 m/s 666 mmHg 67%

    1 Juillet, Lundi

    Heure Température Précipitation Vent Pression Humidité
    00:00 +18°C° 0 mm 1 m/s 666 mmHg 72%
    01:00 +16°C° 0 mm 1 m/s 665 mmHg 77%
    02:00 +16°C° 0 mm 1 m/s 665 mmHg 78%
    03:00 +16°C° 0 mm 1 m/s 665 mmHg 79%
    04:00 +15°C° 0 mm 1 m/s 665 mmHg 80%
    05:00 +16°C° 0 mm 1 m/s 665 mmHg 74%
    06:00 +16°C° 0 mm 1 m/s 666 mmHg 68%
    07:00 +16°C° 0 mm 1 m/s 666 mmHg 62%
    08:00 +20°C° 0 mm 2 m/s 667 mmHg 48%
    09:00 +25°C° 0 mm 2 m/s 668 mmHg 35%
    10:00 +28°C° 0 mm 3 m/s 669 mmHg 22%
    11:00 +30°C° 0 mm 3 m/s 668 mmHg 19%
    12:00 +33°C° 0 mm 3 m/s 668 mmHg 16%
    13:00 +35°C° 0 mm 3 m/s 667 mmHg 14%
    14:00 +35°C° 0 mm 2 m/s 667 mmHg 13%
    15:00 +35°C° 0 mm 2 m/s 666 mmHg 13%
    16:00 +34°C° 0 mm 2 m/s 665 mmHg 13%
    17:00 +30°C° 0 mm 1 m/s 665 mmHg 16%
    18:00 +27°C° 0 mm 1 m/s 665 mmHg 20%
    19:00 +24°C° 0 mm 1 m/s 665 mmHg 23%
    20:00 +23°C° 0 mm 1 m/s 665 mmHg 24%
    21:00 +22°C° 0 mm 1 m/s 665 mmHg 26%
    22:00 +21°C° 0 mm 1 m/s 665 mmHg 27%
    23:00 +20°C° 0 mm 1 m/s 665 mmHg 31%
    Voir plus